Date String (YYYY-MM-DD hh:mm:ss) UTC,Instrument flags,absolute air pressure of the measurement (hPa),sample flow rate (lpm),inlet stack bypass flow (lpm),air temperature of the measurement (°C),ambient temperature measured by the external sensor (°C),aerosol sample conditioner tube jacket temperature (°C),OPC LED temperature (°C),internal box temperature (°C),relative humidity of the measurement (%),span deviation,mass concentration of particles derived from Lorenz-Mie calculation of OPC scattering (μg/m³),mass concentration of particles derived from Lorenz-Mie calculation of OPC scattering (μg/m³),mass concentration of particles derived from Lorenz-Mie calculation of OPC scattering (μg/m³)
DateTimeUTC,F1_M11,P_M11,Q1_M11,Q2_M11,T1_M11,T2_M11,T3_M11,T4_M11,T5_M11,U1_M11,ZSPAN_M11,X0_M11,X2_M11,X1_M11
2023-10-14 17:00:00,SystemResetWarning,0837.7,4.99,000.00,025.8,024.3,000.0,034.2,027.4,15.5,0000.0,0006.85,0004.32,0003.99
2023-10-14 17:01:00,SystemResetWarning,0837.7,5.00,000.00,025.8,024.3,000.0,034.2,027.5,15.5,0000.0,0006.70,0004.33,0004.00
2023-10-14 17:02:00,SystemResetWarning,0837.7,4.99,000.00,025.8,024.3,000.0,034.2,027.5,15.6,0000.0,0007.24,0004.36,0004.02
2023-10-14 17:03:00,SystemResetWarning,0837.7,5.00,000.00,025.8,024.3,000.0,034.2,027.5,15.6,0000.0,0007.10,0004.33,0004.02
2023-10-14 17:04:00,SystemResetWarning,0837.7,5.00,000.00,025.8,024.3,000.0,034.2,027.5,15.6,0000.0,0007.03,0004.31,0004.02
2023-10-14 17:05:00,SystemResetWarning,0837.7,5.00,000.00,025.8,024.3,000.0,034.2,027.5,15.5,0000.0,0007.15,0004.30,0004.01
2023-10-14 17:06:00,SystemResetWarning,0837.7,5.00,000.00,025.8,024.3,000.0,034.2,027.5,15.5,0000.0,0007.24,0004.32,0004.01
2023-10-14 17:07:00,SystemResetWarning,0837.7,5.00,000.00,025.8,024.3,000.0,034.2,027.5,15.6,0000.0,0007.35,0004.34,0004.01
2023-10-14 17:08:00,SystemResetWarning,0837.7,5.00,000.00,025.8,024.3,000.0,034.2,027.5,15.6,0000.0,0007.44,0004.36,0004.02
2023-10-14 17:09:00,SystemResetWarning,0837.7,4.99,000.00,025.8,024.4,000.0,034.2,027.5,15.7,0000.0,0007.44,0004.38,0004.04
2023-10-14 17:10:00,SystemResetWarning,0837.7,5.00,000.00,025.8,024.4,000.0,034.2,027.5,15.7,0000.0,0007.43,0004.38,0004.05
2023-10-14 17:11:00,SystemResetWarning,0837.7,5.00,000.00,025.8,024.4,000.0,034.2,027.5,15.6,0000.0,0007.43,0004.40,0004.06
2023-10-14 17:12:00,SystemResetWarning,0837.7,5.01,000.00,025.8,024.4,000.0,034.2,027.5,15.5,0000.0,0007.30,0004.38,0004.07
2023-10-14 17:13:00,SystemResetWarning,0837.6,5.00,000.00,025.8,024.4,000.0,034.2,027.5,15.5,0000.0,0006.72,0004.36,0004.07
2023-10-14 17:14:00,SystemResetWarning,0837.6,5.00,000.00,025.8,024.3,000.0,034.2,027.5,15.6,0000.0,0006.66,0004.39,0004.09
2023-10-14 17:15:00,SystemResetWarning,0837.6,5.01,000.00,025.8,024.3,000.0,034.2,027.5,15.7,0000.0,0006.60,0004.39,0004.11
2023-10-14 17:16:00,SystemResetWarning,0837.7,5.00,000.00,025.8,024.3,000.0,034.2,027.5,15.7,0000.0,0006.50,0004.39,0004.12
2023-10-14 17:17:00,SystemResetWarning,0837.6,4.99,000.00,025.8,024.3,000.0,034.2,027.5,15.6,0000.0,0006.98,0004.38,0004.13
2023-10-14 17:18:00,SystemResetWarning,0837.6,5.00,000.00,025.8,024.3,000.0,034.2,027.5,15.7,0000.0,0007.18,0004.36,0004.12
2023-10-14 17:19:00,SystemResetWarning,0837.6,5.00,000.00,025.8,024.3,000.0,034.2,027.5,15.7,0000.0,0007.28,0004.37,0004.14
2023-10-14 17:20:00,SystemResetWarning,0837.7,5.00,000.00,025.8,024.3,000.0,034.2,027.5,15.7,0000.0,0007.56,0004.38,0004.13
2023-10-14 17:21:00,SystemResetWarning,0837.6,5.00,000.00,025.8,024.3,000.0,034.2,027.5,15.7,0000.0,0007.83,0004.36,0004.13
2023-10-14 17:22:00,SystemResetWarning,0837.6,5.00,000.00,025.8,024.4,000.0,034.2,027.5,15.6,0000.0,0007.79,0004.35,0004.13
2023-10-14 17:23:00,SystemResetWarning,0837.7,5.00,000.00,025.8,024.3,000.0,034.2,027.5,15.6,0000.0,0008.06,0004.36,0004.14
2023-10-14 17:24:00,SystemResetWarning,0837.6,5.01,000.00,025.8,024.3,000.0,034.2,027.5,15.5,0000.0,0008.66,0004.39,0004.16
2023-10-14 17:25:00,SystemResetWarning,0837.6,5.00,000.00,025.8,024.3,000.0,034.2,027.5,15.6,0000.0,0008.67,0004.39,0004.17
2023-10-14 17:26:00,SystemResetWarning,0837.6,5.00,000.00,025.8,024.3,000.0,034.2,027.5,15.6,0000.0,0008.76,0004.41,0004.19
2023-10-14 17:27:00,SystemResetWarning,0837.6,5.00,000.00,025.8,024.3,000.0,034.2,027.5,15.6,0000.0,0008.74,0004.41,0004.20
2023-10-14 17:28:00,SystemResetWarning,0837.7,5.00,000.00,025.8,024.3,000.0,034.2,027.5,15.7,0000.0,0008.57,0004.43,0004.22
2023-10-14 17:29:00,SystemResetWarning,0837.6,5.00,000.00,025.8,024.3,000.0,034.2,027.5,15.6,0000.0,0008.54,0004.46,0004.23
2023-10-14 17:30:00,SystemResetWarning,0837.6,5.00,000.00,025.8,024.3,000.0,034.2,027.5,15.5,0000.0,0008.93,0004.46,0004.22
2023-10-14 17:31:00,SystemResetWarning,0837.6,4.99,000.00,025.8,024.3,000.0,034.2,027.5,15.5,0000.0,0008.69,0004.45,0004.22
2023-10-14 17:32:00,SystemResetWarning,0837.6,5.00,000.00,025.8,024.3,000.0,034.2,027.5,15.5,0000.0,0008.37,0004.46,0004.23
2023-10-14 17:33:00,SystemResetWarning,0837.6,5.00,000.00,025.8,024.3,000.0,034.2,027.5,15.6,0000.0,0008.33,0004.45,0004.23
2023-10-14 17:34:00,SystemResetWarning,0837.6,5.00,000.00,025.8,024.3,000.0,034.2,027.5,15.7,0000.0,0008.09,0004.47,0004.23
2023-10-14 17:35:00,SystemResetWarning,0837.6,5.00,000.00,025.8,024.4,000.0,034.2,027.5,15.7,0000.0,0007.55,0004.48,0004.23
2023-10-14 17:36:00,SystemResetWarning,0837.6,5.00,000.00,025.8,024.4,000.0,034.2,027.5,15.7,0000.0,0008.07,0004.51,0004.23
2023-10-14 17:37:00,SystemResetWarning,0837.6,5.00,000.00,025.8,024.4,000.0,034.2,027.5,15.7,0000.0,0008.37,0004.52,0004.25
2023-10-14 17:38:00,SystemResetWarning,0837.6,5.00,000.00,025.8,024.4,000.0,034.2,027.5,15.7,0000.0,0009.30,0004.54,0004.26
2023-10-14 17:39:00,SystemResetWarning,0837.6,5.00,000.00,025.8,024.4,000.0,034.2,027.5,15.7,0000.0,0009.62,0004.55,0004.26
2023-10-14 17:40:00,SystemResetWarning,0837.6,5.00,000.00,025.8,024.4,000.0,034.2,027.5,15.8,0000.0,0009.49,0004.56,0004.28
2023-10-14 17:41:00,SystemResetWarning,0837.6,5.00,000.00,025.8,024.4,000.0,034.2,027.5,15.9,-000.1,0009.14,0004.57,0004.30
2023-10-14 17:42:00,SystemResetWarning,0837.6,5.00,000.00,025.8,024.3,000.0,034.2,027.5,15.8,-000.7,0009.16,0004.59,0004.33
2023-10-14 17:43:00,SystemResetWarning,0837.6,5.00,000.00,025.8,024.3,000.0,034.2,027.5,15.7,0000.0,0009.21,0004.62,0004.37
2023-10-14 17:44:00,SystemResetWarning,0837.6,5.00,000.00,025.8,024.3,000.0,034.2,027.5,15.7,0000.0,0009.52,0004.68,0004.40
2023-10-14 17:45:00,SystemResetWarning,0837.6,4.99,000.00,025.8,024.3,000.0,034.2,027.5,15.7,0000.0,0009.94,0004.75,0004.42
2023-10-14 17:46:00,SystemResetWarning,0837.5,4.99,000.00,025.8,024.3,000.0,034.2,027.5,15.7,-000.4,0010.16,0004.78,0004.43
2023-10-14 17:47:00,SystemResetWarning,0837.5,4.99,000.00,025.8,024.3,000.0,034.2,027.5,15.8,-000.2,0009.99,0004.81,0004.46
2023-10-14 17:48:00,SystemResetWarning,0837.5,5.00,000.00,025.8,024.3,000.0,034.2,027.5,15.7,-000.8,0009.77,0004.83,0004.50
2023-10-14 17:49:00,SystemResetWarning,0837.4,5.00,000.00,025.8,024.3,000.0,034.2,027.5,15.9,0000.0,0008.77,0004.88,0004.55
2023-10-14 17:50:00,SystemResetWarning,0837.4,5.00,000.00,025.8,024.3,000.0,034.2,027.5,15.8,0000.0,0008.72,0004.93,0004.61
2023-10-14 17:51:00,SystemResetWarning,0837.5,5.00,000.00,025.8,024.3,000.0,034.2,027.5,15.9,0000.0,0009.70,0004.97,0004.65
2023-10-14 17:52:00,SystemResetWarning,0837.5,5.01,000.00,025.8,024.3,000.0,034.2,027.4,15.9,-000.3,0009.84,0005.00,0004.68
2023-10-14 17:53:00,SystemResetWarning,0837.5,5.00,000.00,025.8,024.3,000.0,034.2,027.4,16.0,0000.0,0009.68,0005.01,0004.69
2023-10-14 17:54:00,SystemResetWarning,0837.4,4.99,000.00,025.8,024.3,000.0,034.2,027.4,16.2,0000.0,0009.71,0005.03,0004.71
2023-10-14 17:55:00,SystemResetWarning,0837.4,5.00,000.00,025.8,024.3,000.0,034.2,027.5,16.2,0000.0,0009.56,0005.07,0004.74
2023-10-14 17:56:00,SystemResetWarning,0837.4,5.00,000.00,025.8,024.3,000.0,034.2,027.5,16.0,0000.0,0009.13,0005.05,0004.76
2023-10-14 17:57:00,SystemResetWarning,0837.4,5.00,000.00,025.8,024.3,000.0,034.2,027.5,16.1,0000.0,0009.00,0005.09,0004.82
2023-10-14 17:58:00,SystemResetWarning,0837.4,5.01,000.00,025.8,024.4,000.0,034.2,027.5,16.2,0000.0,0008.87,0005.12,0004.86
2023-10-14 17:59:00,SystemResetWarning,0837.4,5.00,000.00,025.8,024.4,000.0,034.2,027.6,16.2,0000.0,0009.08,0005.14,0004.87
